GFSSGP_con_sbcape_231.txt.gz
CAPE
0 0 0 0 0 0 0 0 0 0 0 35 16 11 163 79 47 0 0 109 850 609 1744 2006 2587 2684 2546 2066 1910 1647 1397 1258 1298 1262 1146 1193 1385 1472 1915 1919 1860 1717 1330 1130 1039 671 366 266 397
0 0 0 0 0 0 0 0 0 0 0 314 275 307 826 1 0 43 131 29 67 1321 1374 1963 2612 2628 2604 2259 2004 1645 1418 1335 1360 1407 1352 1320 1434 1522 1742 1988 1934 1859 1199 707 500 489 288 168 327
0 0 0 0 0 0 0 0 0 0 0 6 534 1250 1040 10 7 152 691 850 1900 1681 1540 2183 2642 2582 2578 2506 2089 1721 1537 1390 1436 1392 1452 1494 1586 1612 1663 1965 1845 1921 1256 814 460 525 329 230 238
0 0 0 0 0 0 0 0 0 0 0 2 455 1747 1783 88 187 682 1683 2061 1288 1691 1808 2521 2560 2565 2506 2476 2271 1894 1665 1541 1582 1568 1568 1612 1725 1747 1740 1839 1741 1898 1514 986 930 629 339 249 240
0 0 0 0 0 0 0 0 0 0 0 15 539 1081 1800 2058 1769 1823 2076 1965 2174 1595 1694 2115 2415 2476 2449 2252 2285 2122 1876 1633 1701 1798 1759 1741 1790 1792 1882 1808 1701 1698 1600 1287 1149 818 384 230 223
0 0 0 0 0 0 0 0 0 0 0 0 0 0 144 411 1145 1053 2284 2519 2069 1363 1095 1496 2209 2319 2385 2390 2379 2338 2194 1973 1901 1848 1755 1737 1810 1799 1835 1848 1758 1687 1749 1525 1346 986 486 233 111
0 0 0 0 0 0 0 0 0 0 0 0 0 0 0 0 35 750 1821 1916 1052 657 519 648 1389 1940 2244 2290 2270 2321 2222 2077 1977 1882 1792 1795 1852 1852 1836 1811 1810 1695 1734 1856 1455 1231 730 317 98
0 0 0 0 0 0 0 0 0 0 0 0 0 0 0 0 0 0 192 1195 1014 544 178 140 597 1343 1638 1790 2206 2187 2098 2070 2001 1979 1915 1851 1880 1894 1894 1698 1736 1945 1858 1919 1678 1387 1028 554 172
0 0 0 0 0 0 0 0 0 0 0 0 0 0 0 0 0 0 0 0 31 0 0 89 409 531 310 456 1394 2006 1879 1834 1803 1830 1906 1715 1373 1171 1411 1508 1560 1803 1902 1893 1784 1491 1192 823 424
0 0 0 0 0 0 0 0 0 0 0 0 0 0 0 0 0 0 0 0 0 0 0 0 0 0 0 919 725 1234 1467 1462 1324 979 1055 1155 866 588 759 1016 1608 1431 1685 1680 1710 1544 1336 1110 193
0 0 0 0 0 0 0 0 0 0 0 0 0 0 0 0 0 0 0 0 0 0 0 0 0 0 0 0 404 375 682 398 332 134 42 495 543 119 214 111 737 807 1214 1077 1343 1233 1030 581 210
0 0 0 0 0 0 0 0 0 0 0 0 0 0 0 0 0 0 0 0 0 0 0 0 0 0 0 0 0 0 464 2 173 514 466 375 233 172 365 107 53 297 372 847 730 762 581 375 116
0 0 0 0 0 0 0 0 0 0 0 0 0 0 0 0 0 0 0 0 0 0 0 0 0 0 0 0 0 0 0 834 869 575 276 168 12 13 20 56 339 331 332 496 517 498 488 364 156
0 0 0 0 0 0 0 0 0 0 0 0 0 0 0 0 0 0 0 0 0 0 0 0 0 0 0 0 0 0 0 0 300 921 272 90 0 0 0 0 17 905 632 677 861 787 438 337 268
0 0 0 0 0 0 0 0 0 0 0 0 0 0 0 0 0 0 0 0 0 0 0 0 0 0 0 0 0 0 0 0 0 66 52 0 0 0 0 0 61 1113 1227 1078 770 803 464 226 346
0 0 0 0 0 0 0 0 0 0 0 0 0 0 0 0 0 0 0 0 0 0 0 0 0 0 0 0 0 0 0 0 0 0 0 52 199 747 140 0 453 1516 1748 1813 1244 400 0 0 342
0 0 0 0 0 0 0 0 0 0 0 0 0 0 0 0 0 0 0 0 0 0 0 0 0 0 0 0 0 0 0 0 0 0 6 40 34 459 1008 1358 1670 1701 1534 1555 1346 473 0 254 721
0 0 0 0 0 0 0 0 0 0 0 0 0 0 0 0 0 0 0 0 0 0 0 0 0 0 0 0 0 0 0 0 0 0 0 0 18 37 19 274 1766 1870 1592 1426 1423 1269 972 771 746
0 0 0 0 0 0 0 0 0 0 0 0 0 0 0 0 0 0 0 0 0 0 0 0 0 0 2 0 0 0 0 0 0 0 0 0 0 11 27 26 88 1221 1578 1545 1329 1354 1300 1014 935
0 0 0 0 0 0 0 0 0 0 0 1 0 0 0 0 0 0 0 0 0 0 0 0 0 0 2 0 0 0 2 0 0 0 0 0 0 0 97 94 79 133 1049 1275 1330 1116 1081 943 811
0 0 0 0 0 0 0 0 0 0 1 0 0 2 0 0 0 0 0 0 0 0 0 0 0 1 15 20 13 0 0 0 0 0 0 0 0 0 0 0 39 204 757 815 928 1070 885 749 831
0 0 0 0 0 0 0 0 0 0 0 0 0 12 22 8 0 0 0 0 0 0 0 0 0 14 41 48 36 0 0 0 0 0 0 0 0 0 0 0 0 7 88 591 607 944 830 626 626
0 0 0 0 0 0 0 0 0 0 0 0 0 0 2 0 0 0 0 0 0 0 0 0 0 2 0 2 39 0 0 0 0 0 0 0 0 0 0 0 0 0 0 105 603 701 616 625 590
0 0 0 0 0 0 0 0 0 7 38 0 0 0 10 0 0 0 0 0 0 0 0 0 0 1 1 0 0 0 0 0 0 0 0 0 0 0 0 0 0 0 0 4 47 324 639 599 545
0 0 0 0 0 0 0 1 19 13 6 6 10 1 0 0 0 0 0 0 0 0 0 0 0 0 0 0 0 0 0 0 0 0 0 0 0 0 0 0 0 0 0 0 0 0 231 677 615
0 0 0 0 0 0 0 34 5 0 0 0 0 0 0 0 0 0 0 0 0 0 4 3 0 0 0 0 0 0 0 0 0 0 0 0 0 0 2 4 5 3 0 0 2 87 105 344 512
0 0 0 0 0 0 0 6 3 2 4 0 0 0 0 0 0 0 0 0 0 0 1 0 0 0 0 0 0 0 0 0 0 2 2 4 1 1 1 0 11 11 3 0 2 0 0 53 340
0 0 0 3 0 0 0 14 11 4 11 7 3 0 0 0 0 0 0 0 0 0 0 0 0 0 0 0 0 0 0 0 0 1 2 2 1 2 5 6 7 0 5 0 0 0 1 0 97
0 0 0 4 5 0 0 0 0 0 0 10 0 0 0 0 0 0 0 0 0 0 0 0 0 0 0 0 0 0 0 0 4 5 8 2 4 4 4 7 11 19 24 15 1 0 1 0 26
0 0 0 11 0 0 0 0 30 32 0 0 0 0 0 0 0 0 0 0 0 0 0 0 0 0 0 0 0 0 0 5 1 1 1 7 10 6 9 8 7 7 8 9 1 6 6 9 30

GFSSGP_con_sbcape_234.txt.gz
CAPE
0 0 0 0 0 0 0 0 0 0 98 78 65 144 223 225 87 0 0 111 163 1019 1567 2253 2722 2700 2340 2071 1859 1519 1423 1407 1322 1319 1300 1406 1627 1790 1708 1698 1764 1897 1472 1347 964 378 340 414 446
0 0 0 0 0 0 0 0 0 20 78 174 62 20 29 0 9 37 51 107 235 759 1642 2073 2619 2766 2471 2239 1997 1601 1457 1465 1324 1297 1281 1350 1520 1697 1630 1755 1761 1538 1068 1025 848 378 222 340 362
0 0 0 0 0 0 0 0 0 108 180 669 1017 472 0 3 54 89 121 154 240 352 1448 2213 2679 2661 2704 2371 2023 1669 1541 1532 1264 1127 1256 1294 1478 1618 1907 1727 1867 1446 1053 658 419 314 293 219 321
0 0 0 0 0 0 0 0 0 0 106 1678 1844 1047 618 187 295 290 1376 364 206 1472 1657 2473 2577 2601 2664 2554 2149 1831 1628 1613 1499 1199 1272 1373 1437 1485 1575 1773 1634 1658 1354 989 646 611 303 236 249
0 0 0 0 0 0 0 0 0 34 424 1523 1767 1896 790 362 344 956 880 1583 1682 1700 1777 2198 2536 2636 2689 2495 2424 2118 1839 1590 1692 1697 1363 1360 1602 1525 1550 1653 1529 1399 1435 1158 875 921 484 254 238
0 0 0 0 0 0 0 0 0 0 0 202 756 1105 810 887 207 0 302 1125 1686 1507 1521 1875 2499 2581 2610 2616 2478 2232 1962 1763 1837 1878 1782 1696 1642 1627 1671 1695 1651 1608 1672 1510 1341 1146 663 322 211
0 0 0 0 0 0 0 0 0 0 0 0 0 0 0 0 0 54 259 446 386 444 650 1178 1647 2185 2365 2413 2341 2203 2006 1866 1861 1831 1736 1714 1738 1734 1749 1742 1750 1702 1605 1677 1601 1317 1003 535 280
0 0 0 0 0 0 0 0 0 0 0 0 0 0 0 0 1 226 0 77 291 39 374 302 535 1061 1433 1593 2176 2264 2131 2007 1925 1862 1814 1783 1840 1842 1823 1552 1552 1719 1637 1561 1675 1534 1269 881 489
0 0 0 0 0 0 0 0 0 0 0 0 0 0 0 0 0 0 0 0 0 0 96 0 0 15 105 667 1514 2207 2126 2127 2089 2054 2021 1663 1423 1340 1426 1518 1486 1691 1776 1695 1604 1528 1311 1100 812
0 0 0 0 0 0 0 0 0 0 0 0 0 0 0 0 0 0 0 0 0 0 0 0 0 0 0 349 460 1524 1408 1471 1423 1419 1322 1395 1070 830 1002 1200 1737 1649 1616 1654 1595 1523 1393 1268 419
0 0 0 0 0 0 0 0 0 0 0 0 0 0 0 0 0 0 0 0 0 0 0 0 0 0 0 0 59 257 471 299 356 739 668 712 769 417 647 517 855 1210 1317 1049 1141 1054 1006 615 398
0 0 0 0 0 0 0 0 0 0 0 0 0 0 0 0 0 0 0 0 0 0 0 0 0 0 0 0 0 0 0 15 4 116 436 40 190 304 193 115 13 128 625 748 689 744 706 642 463
0 0 0 0 0 0 0 0 0 0 0 0 0 0 0 0 0 0 0 0 0 0 0 0 0 0 0 0 0 0 0 0 4 348 509 373 193 102 53 144 229 149 136 271 524 502 565 525 416
0 0 0 0 0 0 0 0 0 0 0 0 0 0 0 0 0 0 0 0 0 0 0 0 0 0 0 0 0 0 0 0 0 0 222 363 84 0 0 0 0 0 147 246 332 387 386 366 366
0 0 0 0 0 0 0 0 0 0 0 0 0 0 0 0 0 0 0 0 0 0 0 0 0 0 0 0 0 0 0 0 0 0 0 0 0 0 0 0 0 0 240 441 371 565 501 402 304
0 0 0 0 0 0 0 0 0 0 0 0 0 0 0 0 0 0 0 0 0 0 0 0 0 0 0 0 0 0 0 0 0 0 0 0 0 0 22 34 8 0 26 1017 634 658 636 575 461
0 0 0 0 0 0 0 0 0 0 0 0 0 0 0 0 0 0 0 0 0 0 0 0 0 0 0 0 0 0 0 0 0 0 0 0 0 0 8 173 527 485 197 576 1040 673 34 0 0
0 0 0 0 0 0 0 0 0 0 0 0 0 0 0 0 0 0 0 0 0 0 0 0 0 0 0 0 0 0 0 0 0 0 0 0 0 0 0 0 0 0 268 947 920 931 442 133 309
0 0 0 0 0 0 0 0 0 0 0 0 0 0 0 0 0 0 0 0 0 0 0 0 0 0 0 0 0 0 0 0 0 0 0 0 0 0 0 0 0 0 0 180 673 746 684 642 784
0 0 0 0 0 0 0 0 0 0 0 0 0 0 0 0 0 0 0 0 0 0 0 0 0 0 0 0 0 0 0 0 0 0 0 0 0 0 0 0 0 0 0 12 165 498 659 374 354
0 0 0 0 0 0 0 0 0 0 0 0 0 0 0 0 0 0 0 0 0 0 0 0 0 0 0 0 0 0 0 0 0 0 0 0 0 0 0 0 0 0 0 0 2 77 307 574 479
0 0 0 0 0 0 0 0 0 0 0 0 0 0 0 0 0 0 0 0 0 0 0 0 0 0 0 0 0 0 0 0 0 0 0 0 0 0 0 0 0 0 0 0 0 84 289 319 438
0 0 0 0 0 0 0 0 0 0 0 0 0 0 0 0 0 0 0 0 0 0 0 0 0 0 0 0 0 0 0 0 0 0 0 0 0 0 0 0 0 0 0 0 0 0 0 193 257
0 0 0 0 0 0 0 0 0 0 0 0 0 0 0 0 0 0 0 0 0 0 0 0 0 0 0 0 0 0 0 0 0 0 0 0 0 0 0 0 0 2 0 0 0 0 0 0 116
0 0 0 0 0 0 0 0 0 0 0 0 0 1 0 0 0 0 0 0 0 0 0 0 0 0 0 0 0 0 0 0 0 0 0 0 0 0 0 0 0 0 0 0 0 0 0 0 64
0 0 0 0 0 0 0 0 0 0 0 0 0 0 0 0 0 0 0 0 0 0 0 0 0 0 0 0 0 0 0 0 0 0 0 0 0 3 0 0 0 0 0 7 11 11 3 7 81
0 0 0 0 0 0 0 0 0 0 0 0 0 0 0 0 0 0 0 0 0 0 0 0 0 0 0 0 0 0 0 0 0 0 0 0 0 4 0 0 0 0 0 3 0 0 0 7 6
0 0 0 0 0 0 0 0 0 0 0 0 0 0 0 0 0 0 0 0 0 0 0 0 0 0 0 0 0 0 0 0 0 1 1 0 2 6 4 3 4 1 3 3 0 1 0 0 0
0 0 0 0 0 0 0 0 0 0 0 0 0 0 0 0 0 0 0 0 0 0 0 0 0 0 0 0 0 0 0 0 2 8 1 0 1 0 10 12 10 7 4 4 15 6 8 14 5
0 0 0 0 0 0 0 0 0 0 0 0 0 0 0 0 0 0 0 0 0 0 0 0 0 0 0 0 0 0 0 9 4 3 6 5 6 7 4 5 6 7 9 5 7 13 16 19 23

GFSSGP_con_sbcape_237.txt.gz
CAPE
0 0 0 0 0 0 0 0 0 172 172 53 107 90 226 82 87 20 4 288 277 1069 1985 2335 2798 2309 1945 1811 1545 1253 1305 1327 1333 1378 1465 1689 1660 1668 1736 1881 2107 1937 1221 934 590 416 317 465 671
0 0 0 0 0 0 0 0 0 0 172 59 4 27 29 4 130 113 33 353 272 860 1853 2100 2739 2625 2149 1954 1669 1445 1332 1300 1257 1193 1231 1430 1756 1602 1474 1673 1720 1428 1327 1215 895 382 196 287 423
0 0 0 0 0 0 0 0 342 253 154 629 928 148 46 114 216 223 756 986 352 1019 1652 2079 2680 2701 2413 2072 1878 1623 1454 1345 1230 1183 1115 1234 1415 1741 1660 1726 1708 1224 1014 890 741 478 395 312 434
0 0 0 0 0 0 0 0 83 303 272 439 903 593 267 741 437 450 1834 521 186 1228 1621 2607 2658 2692 2655 2307 2084 1818 1612 1530 1371 1234 1226 1242 1213 1540 1693 1633 1716 1619 1335 1027 728 711 546 433 433
0 0 0 0 0 0 0 0 153 215 480 1266 1403 1176 505 725 1345 1202 607 1467 1316 1516 1686 2113 2510 2591 2558 2270 2019 1922 1781 1827 1856 1525 1326 1389 1595 1528 1582 1741 1506 1439 1472 1394 1164 1150 826 567 468
0 0 0 0 0 0 0 0 0 869 1247 1335 1265 1125 1087 811 105 786 963 780 1246 1246 1357 1850 2443 2538 2447 2430 2368 2053 1758 1611 1760 1859 1733 1709 1739 1653 1618 1668 1686 1531 1617 1629 1498 1411 1086 694 457
0 0 0 0 0 0 0 0 0 0 0 0 171 61 76 246 153 671 542 236 139 591 673 705 1324 1950 2275 2313 2298 2184 1968 1781 1749 1805 1747 1731 1727 1704 1678 1693 1685 1690 1650 1627 1584 1424 1269 944 603
0 0 0 0 0 0 0 0 0 0 0 0 0 0 0 0 0 0 0 0 1 0 0 0 0 65 789 1483 2304 2357 2237 2143 2039 1980 1900 1777 1787 1812 1787 1595 1579 1738 1691 1594 1544 1565 1399 1176 856
0 0 0 0 0 0 0 0 0 0 0 0 0 0 5 0 0 0 0 0 0 0 0 0 0 0 0 539 1259 2188 2218 2294 2298 2146 2179 1789 1350 1162 1424 1467 1522 1557 1725 1664 1540 1450 1390 1265 1118
0 0 0 0 0 0 0 0 0 0 0 0 0 0 0 0 0 0 0 0 0 0 0 0 0 0 0 23 363 550 588 837 973 1164 1182 1141 1094 915 1057 1281 1595 1918 1730 1675 1622 1544 1469 1428 698
0 0 0 0 0 0 0 0 0 0 0 0 0 0 0 0 0 0 0 0 0 0 0 0 0 0 0 0 0 0 1 0 4 41 218 290 433 465 484 584 489 838 1209 1243 1082 1187 1119 780 539
0 0 0 0 0 0 0 0 0 0 0 0 0 0 0 0 0 0 0 0 0 0 0 0 0 0 0 0 0 0 0 0 0 0 5 143 117 96 155 129 98 0 244 742 828 699 720 607 514
0 0 0 0 0 0 0 0 0 0 0 0 0 0 0 0 0 0 0 0 0 0 0 0 0 0 0 0 0 0 0 0 0 0 0 25 89 122 95 66 83 120 68 76 224 548 561 585 537
0 0 0 0 0 0 0 0 0 0 0 0 0 0 0 0 0 0 0 0 0 0 0 0 0 0 0 0 0 0 0 0 0 0 0 0 0 0 0 0 0 0 0 1 91 217 417 463 401
0 0 0 0 0 0 0 0 0 0 0 0 0 0 0 0 0 0 0 0 0 0 0 0 0 0 0 0 0 0 0 0 0 0 0 0 0 0 0 0 0 0 0 0 21 172 313 276 311
0 0 0 0 0 0 0 0 0 0 0 0 0 0 0 0 0 0 0 0 0 0 0 0 0 0 0 0 0 0 0 0 0 0 0 0 0 0 0 0 0 0 0 2 71 432 482 533 486
0 0 0 0 0 0 0 0 0 0 0 0 0 0 0 0 0 0 0 0 0 0 0 0 0 0 0 0 0 0 0 0 0 0 0 0 0 0 0 0 0 0 0 0 284 555 609 622 330
0 0 0 0 0 0 0 0 0 0 0 0 0 0 0 0 0 0 0 0 0 0 0 0 0 0 0 0 0 0 0 0 0 0 0 0 0 0 0 0 0 0 0 0 0 100 427 308 448
0 0 0 0 0 0 0 0 0 0 0 0 0 0 0 0 0 0 0 0 0 0 0 0 0 0 0 0 0 0 0 0 0 0 0 0 0 0 0 0 0 0 0 0 0 0 175 228 502
0 0 0 0 0 0 0 0 0 0 0 0 0 0 0 0 0 0 0 0 0 0 0 0 0 0 0 0 0 0 0 0 0 0 0 0 0 0 0 0 0 0 0 0 0 0 0 89 226
0 0 0 0 0 0 0 0 0 0 0 0 0 0 0 0 0 0 0 0 0 0 0 0 0 0 0 0 0 0 0 0 0 0 0 0 0 0 0 0 0 0 0 0 0 0 0 49 146
0 0 0 0 0 0 0 0 0 0 0 0 0 0 0 0 0 0 0 0 0 0 0 0 0 0 0 0 0 0 0 0 0 0 0 0 0 0 0 0 0 0 0 0 0 1 0 7 46
0 0 0 0 0 0 0 0 0 0 0 0 0 0 0 0 0 0 0 0 0 0 0 0 0 0 0 0 0 0 0 0 0 0 0 0 0 0 0 0 0 0 0 2 0 0 0 0 1
0 0 0 0 0 0 0 0 0 0 0 0 0 0 0 0 0 0 0 0 0 0 0 0 0 0 0 0 0 0 0 0 0 0 0 0 0 0 0 0 0 0 0 0 0 0 0 0 0
0 0 0 0 0 0 0 0 0 0 0 0 0 0 0 0 0 0 0 0 0 0 0 0 0 0 0 0 0 0 0 0 0 0 0 0 0 0 0 0 0 0 0 0 0 0 0 0 0
0 0 0 0 0 0 0 0 0 0 0 0 0 0 0 0 0 0 0 0 0 0 0 0 0 0 0 0 0 0 0 0 0 0 0 0 2 1 1 3 3 0 5 0 0 1 18 9 1
0 0 0 0 0 0 0 0 0 0 0 0 0 0 0 0 0 0 0 0 0 0 0 0 0 0 0 0 0 0 0 0 0 0 0 8 9 5 6 4 4 1 0 0 0 1 0 0 0
0 0 0 0 0 0 0 0 0 0 0 0 0 0 0 0 0 0 0 0 0 0 0 0 0 0 0 0 0 0 0 0 0 1 2 0 0 1 3 2 0 5 11 6 0 4 2 3 0
0 0 0 0 0 0 0 0 0 0 0 0 0 0 0 0 0 0 0 0 0 0 0 0 0 0 0 0 0 0 0 1 6 2 6 6 5 5 6 7 9 8 7 6 6 4 7 10 9
0 0 0 0 0 0 0 0 0 0 0 0 0 0 0 0 0 0 0 0 0 0 0 0 0 0 0 0 0 0 2 3 1 2 1 1 3 4 6 7 7 8 7 6 7 9 10 21 35

GFSSGP_con_sbcape_240.txt.gz
CAPE
0 0 0 0 0 0 0 0 0 212 359 26 85 102 150 40 58 0 3 354 1110 1439 1840 2379 2319 2040 1814 1539 1260 1333 1351 1356 1436 1545 1710 1742 1834 1887 2054 2150 2194 1974 1272 1164 934 617 632 723 911
0 0 0 0 0 0 0 0 0 64 98 3 31 95 9 3 165 60 23 337 420 1452 1684 2018 2454 2266 1782 1549 1299 1289 1308 1266 1230 1382 1574 1628 1598 1654 1622 1826 2014 1699 1365 1095 761 565 501 598 737
0 0 0 0 0 0 0 0 50 160 85 634 482 202 124 68 252 245 1474 376 671 1534 1573 2181 2534 2342 2043 1704 1403 1377 1306 1300 1209 1096 1417 1614 1676 1558 1547 1577 1620 1340 1250 1241 1136 786 746 615 771
0 0 0 0 0 0 0 0 145 153 627 522 525 663 610 1069 1121 740 1151 422 1017 1313 1802 2491 2509 2467 2262 1840 1632 1455 1320 1284 1255 1237 1407 1552 1671 1818 1567 1699 1779 1554 1303 1143 1049 1123 975 727 708
0 0 0 0 0 0 0 0 120 574 589 1341 1177 873 833 508 323 972 1403 1254 1402 1497 1806 2043 2439 2437 2342 2101 1747 1642 1502 1547 1603 1351 1356 1555 1626 1695 1721 1672 1710 1590 1592 1493 1557 1502 1189 797 706
0 0 0 0 0 0 0 0 140 797 1324 1055 1097 1098 688 29 577 612 305 754 1083 1120 1256 1584 2250 2382 2231 2195 2167 1882 1633 1508 1591 1806 1747 1675 1720 1670 1578 1783 1897 1817 1841 1926 1888 1820 1514 1034 718
0 0 0 0 0 0 0 0 13 66 0 0 28 286 267 25 27 0 0 0 0 0 1 8 19 352 1694 2124 2116 2073 1879 1736 1654 1667 1748 1745 1784 1759 1765 1759 1789 1889 1864 1840 1912 1793 1607 1282 966
0 0 0 0 0 0 0 0 0 0 0 0 0 0 0 0 0 0 0 0 0 0 0 0 0 0 0 957 1726 2292 2218 2165 2092 2063 2030 1925 1830 1816 1795 1665 1550 1756 1833 1839 1749 1672 1572 1381 1194
0 0 0 0 0 0 0 0 0 0 0 0 0 0 0 0 0 0 0 0 0 0 0 0 0 0 7 486 659 724 773 958 1176 1441 1677 1766 1398 1045 1076 1235 1553 1669 1758 1807 1790 1659 1517 1458 1393
0 0 0 0 0 0 0 0 0 0 0 0 0 0 0 0 0 0 0 0 0 0 0 0 0 0 0 0 0 0 0 0 3 44 205 488 691 762 1146 1265 1430 1625 1898 2006 1822 1702 1610 1597 1041
0 0 0 0 0 0 0 0 0 0 0 0 0 0 0 0 0 0 0 0 0 0 0 0 0 0 0 0 0 0 0 0 0 0 0 7 86 167 275 368 408 452 536 836 1061 1177 1239 1247 993
0 0 0 0 0 0 0 0 0 0 0 0 0 0 0 0 0 0 0 0 0 0 0 0 0 0 0 0 0 0 0 0 0 0 0 0 11 21 72 142 193 154 113 237 572 791 818 840 863
0 0 0 0 0 0 0 0 0 0 0 0 0 0 0 0 0 0 0 0 0 0 0 0 0 0 0 0 0 0 0 0 0 0 0 0 0 0 0 0 0 12 21 43 73 186 438 573 695
0 0 0 0 0 0 0 0 0 0 0 0 0 0 0 0 0 0 0 0 0 0 0 0 0 0 0 0 0 0 0 0 0 0 0 0 0 0 0 0 0 0 0 0 0 0 68 324 542
0 0 0 0 0 0 0 0 0 0 0 0 0 0 0 0 0 0 0 0 0 0 0 0 0 0 0 0 0 0 0 0 0 0 0 0 0 0 0 0 0 0 0 0 1 3 189 261 472
0 0 0 0 0 0 0 0 0 0 0 0 0 0 0 0 0 0 0 0 0 0 0 0 0 0 0 0 0 0 0 0 0 0 0 0 0 0 0 0 0 0 0 0 0 83 165 271 575
0 0 0 0 0 0 0 0 0 0 0 0 0 0 0 0 0 0 0 0 0 0 0 0 0 0 0 0 0 0 0 0 0 0 0 0 0 0 0 0 0 0 0 0 0 0 78 241 336
0 0 0 0 0 0 0 0 0 0 0 0 0 0 0 0 0 0 0 0 0 0 0 0 0 0 0 0 0 0 0 0 0 0 0 0 0 0 0 0 0 0 0 0 0 0 0 75 335
0 0 0 0 0 0 0 0 0 0 0 0 0 0 0 0 0 0 0 0 0 0 0 0 0 0 0 0 0 0 0 0 0 0 0 0 0 0 0 0 0 0 0 0 0 0 0 0 237
0 0 0 0 0 0 0 0 0 0 0 0 0 0 0 0 0 0 0 0 0 0 0 0 0 0 0 0 0 0 0 0 0 0 0 0 0 0 0 0 0 0 0 0 0 0 3 18 197
0 0 0 0 0 0 0 0 0 0 0 0 0 0 0 0 0 0 0 0 0 0 0 0 0 0 0 0 0 0 0 0 0 0 0 0 0 0 0 0 0 0 0 0 0 0 3 18 20
0 0 0 0 0 0 0 0 0 0 0 0 0 0 0 0 0 0 0 0 0 0 0 0 0 0 0 0 0 0 0 0 0 0 0 0 0 0 0 0 0 0 0 0 0 4 23 19 25
0 0 0 0 0 0 0 0 0 0 0 0 0 0 0 0 0 0 0 0 0 0 0 0 0 0 0 0 0 0 0 0 0 0 0 0 0 0 0 0 0 0 0 6 7 3 11 16 17
0 0 0 0 0 0 0 0 0 0 0 0 0 0 0 0 0 0 0 0 0 0 0 0 0 0 0 0 0 0 0 0 0 0 0 0 0 0 0 1 4 11 14 11 8 14 16 17 21
0 0 0 0 0 0 0 0 0 0 0 0 0 0 0 0 0 0 0 0 0 0 0 0 0 0 0 0 0 0 0 0 0 0 0 1 3 4 3 1 2 4 16 7 5 11 5 1 2
0 0 0 0 0 0 0 0 0 0 0 0 0 0 0 0 0 0 0 0 0 0 0 0 0 0 0 0 0 0 0 0 0 0 3 5 9 5 8 6 7 27 8 7 18 9 3 9 26
0 0 0 0 0 0 0 0 0 0 0 0 0 0 0 0 0 0 0 0 0 0 0 0 0 0 0 0 0 0 0 0 0 3 6 10 10 6 7 7 5 3 7 6 8 6 7 13 13
0 0 0 0 0 0 0 0 0 0 0 0 0 0 0 0 0 0 0 0 0 0 0 0 0 0 0 0 0 0 2 2 0 3 2 6 6 6 5 6 8 8 8 6 15 20 16 21 18
0 0 0 0 0 0 0 0 0 0 0 0 0 0 0 0 0 0 0 0 0 0 0 0 0 0 0 0 1 0 0 1 1 0 1 2 2 3 4 6 8 10 10 8 6 8 17 21 20
0 0 0 0 0 0 0 0 0 0 0 0 0 0 0 0 0 0 0 0 0 0 0 0 0 0 1 1 0 0 3 2 0 2 2 1 4 9 11 12 11 10 8 6 7 8 12 17 17

GFSSGP_con_sbcape_246.txt.gz
CAPE
0 0 0 0 0 1 5 0 326 533 646 894 794 768 601 466 343 653 1491 2166 1447 1540 1559 1574 1794 1447 1261 1384 1172 1469 1736 2091 2169 2083 1924 1716 1768 1635 1569 1644 1395 1329 1462 1619 1352 887 716 811 1089
0 0 0 0 0 50 27 97 424 564 836 901 555 402 450 455 638 972 1166 1787 1735 1737 1765 1649 1819 1584 1322 1297 1195 992 1301 1392 1500 1709 1730 1819 1900 1770 1449 1465 1477 1529 1531 1392 1244 852 574 619 787
0 0 0 0 0 34 82 374 448 881 858 460 403 413 704 830 1102 1268 1074 1285 2160 1843 1757 1996 1922 1879 1388 1228 1246 1209 977 978 1045 1048 1150 1245 1360 1512 1603 1545 1634 1626 1481 1277 1085 903 689 550 584
0 0 0 0 0 0 46 375 721 868 817 722 467 800 706 1272 1369 1596 1036 1702 2305 2159 1827 2176 2412 2004 1717 1319 1206 1198 1174 1166 1086 888 929 955 985 1075 1185 1265 1388 1483 1548 1485 1403 1394 1313 903 635
0 0 0 0 0 0 47 534 565 636 636 531 515 675 692 1480 1629 1424 2241 2178 2352 2209 1690 1311 2131 2142 2001 1671 1478 1274 1173 1208 1202 1128 1050 968 1019 1183 1297 1170 1152 1202 1186 1327 1482 1636 1828 1535 1223
0 0 0 0 0 0 143 764 729 754 882 809 877 787 750 1020 2084 2101 1841 2137 1948 1437 814 732 1806 2008 2035 1987 1825 1638 1489 1351 1211 1202 1241 1223 1156 1183 1243 1207 1196 1290 1408 1526 1660 2146 2238 2109 1764
0 0 0 0 0 116 241 983 912 780 841 621 974 1031 800 758 991 1262 965 529 377 370 534 586 670 1528 1816 2152 2024 1930 1791 1743 1756 1686 1589 1531 1487 1393 1314 1273 1221 1194 1388 1606 1864 1924 1884 1912 1877
0 0 0 0 0 240 598 471 554 593 252 195 530 845 1035 583 310 359 341 265 210 127 190 1070 1433 1326 1163 887 620 394 322 246 258 470 462 590 1215 1641 1617 1664 1511 1497 1428 1399 1709 1775 1797 1669 1597
0 0 0 0 0 134 473 555 326 49 430 409 290 771 738 400 304 321 343 247 108 25 0 0 0 0 100 311 177 217 88 77 49 162 75 352 553 940 1221 1040 1039 1112 1189 1363 1760 1798 1754 1693 1656
0 0 0 0 0 52 473 170 451 398 479 592 759 762 666 480 668 605 368 89 0 0 0 0 0 0 0 0 0 0 0 0 33 75 127 206 352 555 260 527 698 706 874 1099 1355 1420 1458 1506 1005
0 0 0 0 0 1 78 50 175 170 250 435 643 613 578 571 656 108 1 0 0 0 0 0 0 0 0 0 0 0 0 0 0 0 0 1 0 48 57 124 201 409 744 618 1034 1093 1276 1114 1194
0 0 0 0 0 0 0 0 57 0 2 0 193 276 439 170 0 0 0 0 0 0 0 0 0 0 0 0 0 0 0 0 0 0 0 0 0 0 0 0 0 11 114 248 325 390 509 704 905
0 0 0 0 0 0 0 0 0 0 0 24 143 246 38 0 0 0 0 0 0 0 0 0 0 0 0 0 0 0 0 0 0 0 0 0 0 0 0 0 0 0 0 0 0 41 144 297 457
0 0 0 0 0 0 0 0 0 0 1 63 141 47 0 0 0 0 0 0 0 0 0 0 0 0 0 0 0 0 0 0 0 0 0 0 0 0 0 0 0 0 0 0 0 0 0 6 188
0 0 0 0 0 0 0 0 0 0 4 28 69 5 0 0 0 0 0 0 0 0 0 0 0 0 0 0 0 0 0 0 0 0 0 0 0 0 0 0 0 0 0 0 0 0 0 0 0
0 0 0 0 0 0 0 0 0 0 0 0 40 10 0 0 0 0 0 0 0 0 0 0 0 0 0 0 0 0 0 0 0 0 0 0 0 0 0 0 0 0 0 0 0 0 0 0 0
0 0 0 0 0 0 0 0 0 0 0 2 51 17 0 0 0 0 0 0 0 4 0 0 0 0 0 0 30 1 0 0 0 0 0 0 0 0 0 0 0 0 0 0 0 0 0 0 0
0 0 0 0 0 0 0 0 0 0 0 11 47 32 12 4 24 37 20 0 0 6 104 153 75 88 276 175 58 9 0 0 0 0 0 0 1 1 0 0 4 4 0 0 0 3 0 0 0
0 0 0 0 0 0 0 0 0 0 0 0 32 66 59 27 45 76 12 13 15 87 207 396 308 421 475 176 0 0 0 0 0 3 4 0 0 0 8 10 2 9 8 16 4 0 7 0 0
0 0 0 0 0 0 0 0 0 0 1 10 36 51 114 123 145 132 151 153 236 304 384 473 592 590 515 154 97 160 157 62 39 0 0 1 1 1 0 3 1 3 1 8 8 14 4 5 4
0 0 0 0 0 0 0 0 0 0 0 21 55 70 119 177 226 255 199 226 286 373 420 433 382 200 122 158 63 106 91 40 5 10 4 0 0 0 0 0 1 10 16 10 24 27 32 24 14
0 0 0 0 0 0 0 0 0 0 0 11 59 80 106 198 242 236 221 187 280 314 57 13 50 73 31 26 12 13 0 0 0 0 0 0 0 0 1 2 5 20 27 46 35 38 34 50 35
0 0 0 0 0 0 0 0 0 0 0 0 14 9 9 30 235 227 198 75 3 0 32 68 55 19 0 0 0 0 0 0 0 0 0 13 3 5 8 12 21 23 17 26 27 17 26 10 25
0 0 0 0 0 0 0 0 0 0 0 0 0 1 0 0 23 166 35 0 0 1 13 27 18 0 0 0 0 0 0 0 0 0 1 0 3 7 15 20 16 13 36 26 39 30 31 49 46
0 0 0 0 0 0 0 0 0 0 0 8 41 50 52 86 119 37 0 0 0 0 0 0 0 0 0 0 0 0 0 2 2 3 1 9 7 10 14 20 21 24 30 41 35 39 38 39 31
0 0 13 238 0 0 0 0 6 6 19 45 46 63 50 19 0 0 0 0 0 0 0 0 0 0 0 0 0 0 1 0 1 2 9 12 8 11 18 19 24 26 28 24 25 27 25 33 35
0 0 0 0 0 0 0 0 0 0 14 102 41 39 45 29 0 0 0 0 0 0 0 0 0 0 0 0 0 0 3 9 11 13 9 10 19 13 18 24 17 17 18 18 15 17 20 28 29
0 0 0 0 0 3 13 0 0 0 0 21 24 35 55 9 0 0 0 0 0 0 0 0 0 0 0 0 0 1 9 11 13 16 15 14 17 22 19 25 23 20 15 13 15 13 13 13 14
0 0 0 9 9 27 10 9 0 0 0 0 0 29 78 1 0 0 0 0 0 0 0 0 0 0 0 0 3 11 12 14 15 7 9 12 25 21 14 17 22 14 12 12 13 14 15 15 15
0 0 0 3 49 99 52 23 0 0 0 21 27 139 63 6 10 1 0 0 0 0 0 0 0 0 0 5 10 13 13 14 11 15 12 18 17 13 21 15 14 14 14 11 15 13 14 17 15

GFSSGP_con_sbcape_252.txt.gz
CAPE
0 0 0 0 0 0 2 0 41 185 409 400 761 902 762 1036 1376 1176 1317 1184 1422 830 340 208 1480 1350 1179 1473 1790 1895 1917 1789 1516 1271 1154 1099 1089 1199 1243 1209 1117 1132 1055 1132 1292 1075 836 692 692
0 0 0 0 0 0 18 0 77 231 163 406 743 807 882 1082 1145 1416 1236 1355 955 1367 1151 266 1471 1392 1122 1125 1351 1643 1717 1593 1456 1275 1089 1009 1015 1117 1180 1137 1016 978 1106 1274 1251 1181 955 788 749
0 0 0 0 0 0 0 1 22 80 103 351 1041 950 813 1024 1321 1494 1444 1523 1391 1732 1534 1440 1653 1410 1152 971 1083 1274 1360 1360 1265 1189 1089 959 887 997 1135 1073 1092 1250 1342 1350 1269 1226 1322 1245 1131
0 0 0 0 0 127 52 28 1 91 131 523 879 1248 1555 1530 1105 1349 1855 1732 1646 1387 1091 1710 1993 1572 1320 999 1031 1180 1125 1095 989 814 767 748 812 921 979 1014 1094 1159 1175 1195 1223 1598 1761 1817 1782
0 0 0 0 0 189 57 8 26 82 41 164 608 1061 1214 1378 1833 1640 1989 1852 1763 1584 1112 1546 2232 1951 1472 1201 1161 1114 1074 1054 946 837 670 665 739 821 918 1016 1032 1008 1028 1106 1175 1604 1884 2041 2010
0 0 0 0 0 0 232 185 327 65 157 349 658 1147 1446 1617 2047 2030 2126 1857 1800 1109 946 1138 2202 2247 2041 1718 1514 1381 1316 1227 1147 1089 1070 1062 984 952 1038 1153 1221 1244 1307 1460 1560 1754 1863 1985 2036
0 0 0 0 0 3 6 71 73 25 13 34 226 1036 1696 1507 1461 2073 1961 1686 1369 963 921 868 1230 1913 2159 2044 1964 1904 1860 1774 1672 1550 1470 1504 1662 1740 1646 1603 1604 1580 1566 1638 1668 1686 1707 1720 1714
0 0 0 0 0 15 13 132 95 58 153 128 415 485 1349 1403 1129 809 580 447 399 483 709 1120 1495 1447 1177 1128 1501 1333 978 826 890 993 742 930 1548 2234 2261 1997 1695 1893 1935 2051 2125 2033 1895 1826 1694
0 0 0 0 0 3 9 118 317 26 82 248 884 679 1334 1105 745 467 303 159 230 426 637 783 1397 1882 1033 560 495 729 613 623 555 643 504 633 382 831 1193 1734 2072 2209 2104 2081 1944 1726 1729 1781 1749
0 0 0 0 2 97 172 92 23 184 47 294 925 927 818 675 381 203 250 343 106 0 0 0 0 0 0 0 474 692 248 226 8 0 0 0 0 90 0 114 1062 1756 1599 1605 1515 1401 1620 1846 1331
0 0 0 1 19 71 62 54 0 0 9 146 493 663 639 480 235 136 136 16 0 0 0 0 0 40 0 0 0 0 0 1 80 5 89 0 18 0 0 0 0 0 15 141 4 91 469 145 73
0 0 0 0 0 0 5 18 0 1 41 45 486 427 517 408 92 17 0 0 0 0 0 0 9 204 415 0 0 0 0 50 0 63 1 164 0 4 2 0 0 0 0 0 0 0 0 0 0
0 0 0 0 0 0 16 1 0 8 2 248 315 334 234 126 0 0 0 0 0 0 0 0 69 681 563 438 346 196 226 0 52 106 87 118 67 273 5 42 0 0 0 0 0 0 0 0 0
0 0 0 0 0 0 1 0 0 11 0 6 16 7 4 0 0 0 0 0 14 20 0 26 58 562 191 589 535 712 393 308 264 211 42 26 85 638 121 0 0 0 0 0 0 0 0 0 0
0 0 0 0 0 0 0 0 0 0 0 0 0 0 0 0 0 0 0 97 18 182 549 301 405 487 785 433 546 650 757 111 433 271 364 160 266 223 355 53 0 14 19 0 0 1 0 0 0
0 0 0 0 0 0 0 0 0 0 0 0 0 0 0 0 0 0 12 119 340 182 573 486 55 362 931 834 662 842 668 734 592 608 565 330 332 501 650 110 56 36 37 33 7 6 13 2 1
0 0 0 0 0 0 0 0 0 0 0 0 0 0 0 0 0 68 46 162 377 639 641 581 599 177 815 1227 1203 1151 889 1002 769 834 693 740 206 114 825 393 249 347 21 31 41 12 22 16 6
0 0 0 0 0 0 0 0 0 0 0 0 0 0 3 0 0 107 169 164 513 699 879 631 605 1006 963 1241 1466 892 1029 951 730 398 327 602 274 141 417 145 263 291 25 3 0 7 10 28 20
0 2 1 0 0 0 0 0 0 1 0 0 0 11 15 32 0 85 301 421 585 904 1271 1231 1130 1909 1875 1777 1404 1042 1064 580 492 541 433 573 294 1 0 0 0 0 0 0 0 0 1 9 31
0 0 0 1 3 2 0 0 0 0 12 1 0 2 20 20 35 83 638 753 1056 1052 1152 1381 1669 2397 2112 1454 1095 1247 1115 645 358 330 119 0 0 0 0 0 0 0 0 0 7 13 0 0 9
0 0 0 0 1 0 0 0 0 0 0 33 2 33 84 60 104 309 753 983 1018 1354 1556 1881 1748 1567 1086 662 592 443 136 173 20 0 0 0 0 0 0 0 0 1 0 0 0 0 0 2 0
0 0 0 0 0 3 1 0 0 0 9 27 27 26 84 189 280 423 590 1150 1129 1246 1186 1300 1028 796 234 251 47 12 3 0 0 0 0 0 0 0 0 0 0 0 0 0 9 10 13 13 7
0 0 0 0 0 0 0 0 0 0 7 71 86 14 74 128 223 287 253 644 594 410 947 882 697 423 141 25 0 0 0 0 0 0 0 0 0 0 0 0 0 0 0 6 11 17 10 7 16
0 0 0 0 0 0 0 0 0 4 53 67 52 0 29 18 94 213 459 587 514 375 514 612 600 376 48 0 0 0 0 0 0 0 0 0 0 0 2 0 1 5 13 14 14 15 8 3 6
0 0 0 0 0 0 0 0 2 3 0 16 9 6 0 0 0 60 623 317 389 293 163 62 41 10 0 0 0 0 0 0 1 1 1 1 4 8 8 9 12 10 9 14 11 8 10 6 3
0 0 30 12 1 19 0 0 1 19 0 8 2 0 0 25 42 85 465 391 132 88 0 0 0 0 0 0 0 0 0 0 3 0 7 10 9 10 5 12 11 10 10 9 6 10 15 10 2
0 1 0 57 8 21 24 99 135 42 0 0 0 1 88 71 254 250 241 210 55 0 0 0 0 0 0 0 0 0 3 8 6 8 7 7 10 13 13 2 14 10 10 10 10 2 6 5 8
0 0 34 24 8 1 17 107 115 70 0 0 0 16 74 94 126 306 177 135 0 0 0 0 0 0 0 0 0 0 5 4 6 11 14 6 9 7 1 9 9 8 8 8 8 6 5 6 6
0 0 0 106 241 306 200 203 148 93 12 55 39 45 19 88 72 79 23 0 0 0 0 0 0 0 0 0 0 4 10 16 16 5 11 13 1 5 12 13 9 6 8 7 8 5 6 9 6
0 8 124 176 183 358 504 234 225 140 5 22 0 134 93 80 148 118 0 0 0 0 0 0 0 0 0 0 5 10 0 10 3 11 7 0 7 9 7 6 4 6 6 5 6 6 5 6 6

GFSSGP_con_sbcape_255.txt.gz
CAPE
0 0 0 0 0 0 0 2 1 281 447 700 928 960 1169 1294 925 741 892 144 0 76 448 1027 1709 1759 1827 2196 2219 2089 1856 1636 1538 1488 1320 1247 1289 1358 1344 1279 1209 1204 1137 1401 1526 1427 1172 928 858
0 0 0 0 0 0 0 0 4 23 659 813 935 1084 1177 1195 1135 1203 1212 759 85 4 312 925 1677 1561 1647 1813 1931 1967 1917 1815 1651 1474 1308 1205 1156 1194 1226 1084 1022 1079 1227 1386 1402 1401 1319 1224 1040
0 0 0 0 0 0 0 18 66 19 948 868 1033 1377 1171 1176 1608 1202 1213 1531 1165 758 902 1163 1566 1531 1500 1458 1576 1604 1646 1678 1627 1491 1277 1103 994 987 1057 1012 1086 1216 1240 1269 1312 1619 1644 1592 1463
0 0 0 0 0 0 5 31 3 64 621 1100 1289 1401 1256 1076 1610 1519 1464 1119 836 1011 1377 1640 1622 1549 1539 1524 1485 1437 1409 1341 1269 1194 1045 950 960 918 861 894 998 1149 1041 1010 1049 1440 1585 1742 1793
0 0 0 0 0 47 37 2 0 109 477 827 947 1132 1626 1546 1595 1757 1574 1256 819 829 1374 1721 1892 1702 1683 1609 1592 1477 1375 1232 1128 999 836 740 720 758 858 1002 1108 1133 990 1054 1168 1629 1712 1854 1966
0 0 0 0 0 80 68 2 136 95 519 833 1319 1417 1423 1463 1897 1856 1614 1341 906 906 1238 1485 2040 2021 1897 1846 1704 1531 1403 1281 1172 1062 948 917 913 993 1100 1211 1335 1380 1418 1475 1523 1641 1683 1698 1743
0 0 0 0 0 130 135 83 110 11 45 195 885 1339 1383 1426 1742 1890 1509 954 733 596 808 1423 1772 1825 2027 1990 1895 1863 1770 1679 1539 1409 1384 1532 1689 1701 1690 1548 1533 1537 1483 1519 1553 1555 1514 1542 1548
0 0 0 0 0 13 176 154 25 15 0 89 1115 1513 1261 1046 1572 1333 970 1177 657 602 647 935 1529 1578 1543 1675 2072 1813 1473 1150 915 769 548 646 854 1273 1958 1867 1764 2052 1952 1936 1900 1907 1951 1851 1690
0 0 0 0 0 18 193 195 117 83 27 153 241 1251 1053 563 543 270 159 85 669 928 729 867 1159 898 714 613 1007 1104 776 416 285 221 90 0 0 0 885 1100 2023 2246 2278 2146 2025 1903 1801 1614 1553
0 0 0 0 0 56 49 191 97 212 808 1031 1142 1194 974 586 306 166 0 61 18 0 7 456 1221 1031 229 246 217 54 218 87 0 0 0 0 0 0 0 0 19 320 1183 1683 1865 1482 1207 1573 581
0 0 0 0 0 82 38 9 15 1 672 781 841 976 807 583 226 20 68 1 0 0 0 0 0 0 0 0 41 13 13 0 0 0 0 0 0 0 0 0 0 0 0 0 0 0 0 0 0
0 0 0 0 0 56 40 36 0 56 349 535 543 553 492 298 65 0 0 0 0 0 0 0 0 0 0 0 0 0 0 0 0 0 0 0 0 0 0 0 0 0 0 0 0 0 0 0 0
0 0 0 0 0 0 9 0 0 5 327 357 403 432 404 187 0 0 0 0 0 0 0 0 0 0 0 0 0 0 0 0 0 0 0 0 0 0 0 0 0 0 0 0 0 0 0 0 0
0 0 0 0 0 0 0 0 0 159 215 211 240 187 66 0 0 0 0 0 0 0 0 0 0 0 0 0 0 0 0 0 0 0 0 0 0 0 0 0 0 0 0 0 0 0 0 0 0
0 0 0 0 0 0 0 0 0 0 0 0 0 0 0 0 0 0 0 0 0 0 0 0 0 0 0 0 0 0 17 0 0 0 0 0 0 0 0 0 0 0 0 0 0 0 0 0 0
0 0 0 0 0 0 0 0 0 0 1 0 0 0 0 0 0 0 0 0 0 0 0 0 12 0 0 103 0 14 0 6 0 0 0 0 0 0 0 0 0 0 0 0 0 0 0 0 0
0 0 0 0 0 0 0 0 0 0 0 0 0 0 0 0 0 0 0 0 0 0 0 0 0 14 83 197 172 178 91 47 31 22 1 11 0 0 0 0 0 0 0 0 0 0 0 0 0
0 0 0 0 0 0 0 0 0 0 0 0 0 0 0 0 0 0 0 0 0 0 0 0 75 95 123 104 154 272 156 66 0 0 0 0 0 0 0 0 0 0 0 0 0 0 0 0 0
0 0 0 0 0 0 0 0 0 0 0 0 0 0 0 0 0 0 0 0 0 20 13 18 107 233 403 759 636 219 124 40 0 0 0 0 0 0 0 0 0 0 0 0 0 0 0 0 0
0 0 0 0 0 0 0 0 0 0 0 0 0 0 0 0 0 0 0 7 11 71 32 127 251 394 52 8 21 96 0 0 0 0 0 0 0 0 0 0 0 0 0 0 0 0 0 0 0
0 0 0 0 0 0 0 0 0 0 0 0 0 0 0 0 0 0 0 0 12 60 317 529 196 6 0 0 0 0 0 0 0 0 0 0 0 0 0 0 0 0 0 0 0 0 0 3 0
0 0 0 0 0 0 0 0 0 0 0 0 0 0 0 0 0 7 39 117 374 427 103 6 0 0 0 0 0 0 0 0 0 0 0 0 0 0 0 0 0 0 0 0 0 0 0 6 9
0 0 0 0 0 0 0 0 0 0 0 0 0 0 9 14 0 54 289 375 276 62 26 0 0 0 0 0 0 0 0 0 0 0 0 0 0 0 0 0 0 0 0 0 1 3 3 8 12
0 0 0 0 0 0 0 0 0 0 0 0 0 1 13 1 216 436 350 206 153 122 69 0 0 0 0 0 0 0 0 0 0 0 0 0 0 0 0 0 0 2 4 2 4 2 1 1 3
0 0 0 0 0 0 0 0 0 0 0 0 0 0 0 190 199 171 155 128 38 0 0 0 0 0 0 0 0 0 0 0 0 0 0 0 0 0 0 3 6 1 0 0 4 3 2 3 6
0 0 0 0 0 0 0 0 0 0 0 0 0 0 3 73 60 38 2 0 0 0 0 0 0 0 0 0 0 0 0 0 0 0 0 1 0 3 2 1 0 0 0 0 3 7 8 7 3
0 0 0 0 0 0 0 0 51 0 0 0 0 6 89 75 23 0 0 0 0 0 0 0 0 0 0 0 0 0 0 0 0 0 0 0 0 0 0 0 0 2 5 6 6 6 5 6 3
0 0 0 12 0 0 0 0 64 28 7 2 0 41 41 6 0 0 0 0 0 0 0 0 0 0 0 0 0 0 0 0 0 0 0 0 0 0 0 4 2 2 2 3 3 3 4 4 4
0 0 0 0 1 0 0 0 38 10 5 0 0 1 8 0 0 0 0 0 0 0 0 0 0 0 0 0 0 0 0 0 0 0 0 0 0 1 3 2 2 2 2 2 3 2 3 5 4
3 0 8 40 20 9 79 67 2 2 2 0 0 27 4 8 0 0 0 0 0 0 0 0 0 0 0 0 0 0 0 0 0 0 0 0 0 0 0 0 1 2 2 2 2 3 2 2 2